www.pogodaiklimat.ru

Погода и климат >> Архив погоды >> Индонезия >> Surabaya Perak


ПОГОДА в Surabaya Perak

  • Прогноз погоды в Surabaya Perak
  • Монитор погоды в Surabaya Perak
  • Климат города

АРХИВ ПОГОДЫ в Surabaya Perak

Время (UTC), дата Ветер
(напр.,м/с)
 
Видим.   Явления Облачность Т
(С)
Тd
(С)
f
(%)
Тe
(С)
Тes
(С)
Комфортность P
(гПа)
Po
(гПа)
Тmin
(С)
Tmax
(С)
R
(мм)
R24
(мм)
S
(см)
12 11.12 Ю 2 7000 м в посл. час дождь 9/6 600 м
[Cu med, cong As op Ci fib]
+25.8 +23.9 89 +35 +35 очень
душно
1010.5 1010.2 +32.4 1
15 11.12 В 2 7000 м 8/3 600 м
[Cu hum Ac As Ci fib]
+26.0 +23.8 88 +36 +36 очень
душно
1011.0 1010.6
18 11.12 штиль 0 7000 м 4/0
[Ac trans Ci fib]
+25.8 +24.0 90 +36 +36 очень
душно
1010.0 1009.6
21 11.12 штиль 0 7000 м 4/0
[Ac trans Ci fib]
+26.0 +24.4 91 +36 +36 очень
душно
1009.5 1009.1
00 12.12 штиль 0 8000 м 10/0
[As op]
+25.9 +24.3 91 +36 +37 очень
душно
1011.7 1011.4 +25.5 1
03 12.12 штиль 0 10 км 9/0
[Ac trans]
+29.7 +24.6 74 +42 +53 опасность
перегрева
1011.6 1011.2
06 12.12 З 5 12 км 8/3 600 м
[Cu med, cong Ac trans Cc]
+32.0 +24.9 66 +45 +50 опасность
перегрева
1008.9 1008.6
09 12.12 С 5 12 км 9/6
[Cb cap As op]
+31.7 +25.0 68 +45 +46 опасность
перегрева
1007.5 1007.2
12 12.12 штиль 0 8000 м в посл. час дождь 8/4 600 м
[Cu hum As op Ci fib]
+26.6 +24.1 86 +37 +37 очень
душно
1009.8 1009.5 +33.8 2
15 12.12 штиль 0 9000 м 4/3 600 м
[Cu hum Ci fib]
+26.2 +24.6 91 +37 +37 очень
душно
1011.2 1010.9
18 12.12 штиль 0 8000 м 4/3 600 м
[Cu hum Ci fib]
+26.0 +24.6 92 +37 +37 очень
душно
1009.4 1009.1
21 12.12 штиль 0 8000 м 6/3 600 м
[Cu hum As trans Ci fib]
+25.8 +24.7 94 +37 +37 очень
душно
1008.7 1008.3
00 13.12 штиль 0 9000 м 6/3 600 м
[Cu hum As trans Ci fib]
+27.2 +24.8 87 +39 +42 очень
душно
1011.1 1010.8 +25.8 2
03 13.12 З 1 10 км 6/4 600 м
[Cu hum Ci fib]
+31.6 +25.5 70 +46 +58 опасность
перегрева
1010.7 1010.4
06 13.12 СЗ 3 10 км 10/5 600 м
[Cu med, cong As op]
+32.0 +24.4 64 +44 +46 опасность
перегрева
1008.6 1008.2
09 13.12 СЗ 3 10 км 9/4 600 м
[Cu hum As trans Ci fib]
+31.6 +25.2 69 +46 +47 опасность
перегрева
1007.8 1007.4
12 13.12 С 1 8000 м 10/3 600 м
[Cu hum As trans]
+27.2 +24.3 84 +38 +38 очень
душно
1009.9 1009.5 +33.3
15 13.12 штиль 0 8000 м 6/4 700 м
[Sc Ac trans]
+26.7 +24.4 87 +37 +37 очень
душно
1010.9 1010.6
18 13.12 штиль 0 8000 м ясно +26.0 +24.1 89 +36 +36 очень
душно
1009.1 1008.8
21 13.12 штиль 0 8000 м ясно +25.6 +24.0 91 +35 +35 очень
душно
1008.8 1008.5
00 14.12 З 1 9000 м 4/0
[As trans Ci fib]
+26.4 +24.2 88 +37 +40 очень
душно
1010.5 1010.1
03 14.12 СВ 1 10 км 10/4 600 м
[Cu hum As op Ci fib]
+30.4 +24.4 70 +42 +49 опасность
перегрева
1010.8 1010.5
21 14.12 штиль 0 8000 м 10/3 600 м
[Sc As op Cs]
+25.0 +24.0 94 +34 +34 очень
душно
1009.6 1009.2
00 15.12 штиль 0 9000 м 5/0
[Ci fib]
+26.3 +24.7 91 +37 +42 очень
душно
1011.0 1010.6 +24.7 11
03 15.12 З 1 12 км 5/4 600 м
[Cu med, cong As trans Ci fib]
+30.8 +24.7 70 +44 +55 опасность
перегрева
1010.9 1010.6
06 15.12 СЗ 3 12 км 6/5 600 м
[Cu med, cong As trans Ci fib]
+33.5 +24.5 59 +46 +53 опасность
перегрева
1008.0 1007.7
09 15.12 СЗ 5 11 км 6/5 600 м
[Cu med, cong As trans Ci fib]
+32.3 +25.2 66 +46 +47 опасность
перегрева
1006.8 1006.5
12 15.12 ЮЗ 2 8000 м 9/4 600 м
[Cu hum As trans Ci fib]
+29.4 +24.4 75 +42 +42 опасность
перегрева
1010.0 1009.7 +33.7
15 15.12 З 1 8000 м 8/3 600 м
[Cu hum As trans Ci fib]
+27.2 +24.0 83 +38 +38 очень
душно
1011.3 1011.0
18 15.12 З 2 8000 м 6/3 600 м
[Cu hum As trans Ci fib]
+26.8 +23.6 83 +37 +37 очень
душно
1009.9 1009.6
21 15.12 штиль 0 8000 м 5/1 600 м
[Cu hum As trans Ci fib]
+26.0 +23.4 86 +35 +35 очень
душно
1009.8 1009.5
00 16.12 штиль 0 9000 м 4/0
[Ci fib]
+27.0 +24.3 85 +38 +42 очень
душно
1011.3 1011.0 +25.0
03 16.12 СЗ 3 12 км 4/3 600 м
[Cu med, cong Ci fib]
+31.2 +24.1 66 +43 +53 опасность
перегрева
1011.4 1011.1
06 16.12 З 5 12 км 8/4 600 м
[Cu med, cong As op Ci fib]
+33.2 +24.4 60 +46 +50 опасность
перегрева
1009.4 1009.1
09 16.12 СЗ 4 10 км 6/3 600 м
[Cu med, cong As op Ci fib]
+32.2 +25.3 67 +46 +48 опасность
перегрева
1007.2 1006.9
12 16.12 З 3 9000 м 5/4 600 м
[Cu hum Ci fib]
+29.6 +25.3 78 +43 +43 опасность
перегрева
1010.3 1010.0 +34.2
15 16.12 штиль 0 9000 м 6/5 600 м
[Cu Sc Ci fib]
+26.4 +23.6 85 +36 +36 очень
душно
1011.6 1011.2
18 16.12 штиль 0 9000 м 3/0
[Ci fib]
+26.0 +23.8 88 +36 +36 очень
душно
1010.1 1009.8
21 16.12 штиль 0 9000 м 5/0
[As trans Ci fib]
+25.6 +23.4 88 +35 +35 очень
душно
1008.9 1008.6
00 17.12 СЗ 1 11 км 6/1 600 м
[Cu hum Ac trans Ci fib]
+26.6 +23.9 85 +37 +39 очень
душно
1010.9 1010.5 +25.0
03 17.12 З 3 12 км 6/3 600 м
[Cu hum Ac trans Ci fib]
+31.4 +24.7 68 +45 +53 опасность
перегрева
1011.5 1011.1
06 17.12 С 4 11 км 9/3 600 м
[Cu hum Ac trans Ci fib]
+33.3 +24.7 61 +46 +51 опасность
перегрева
1008.7 1008.4
09 17.12 З 3 6000 м гроза, ливневой дождь 10/6 570 м
[Cb cap As op]
+25.2 +24.1 94 +35 +35 очень
душно
1009.5 1009.2 48
12 17.12 штиль 0 6000 м в посл. час дождь {гроза} 10/8 600 м
[Cu med, cong As op]
+25.6 +24.6 94 +36 +36 очень
душно
1010.6 1010.3 4
15 17.12 штиль 0 7000 м 5/1 600 м
[Cu hum As trans Ci fib]
+25.6 +24.4 93 +36 +36 очень
душно
1010.8 1010.4
18 17.12 штиль 0 7000 м 4/0
[Ac trans Ci fib]
+25.0 +24.0 94 +34 +34 очень
душно
1009.6 1009.3
21 17.12 штиль 0 2700 м 3/0
[Ci fib]
+24.7 +24.0 96 +34 +34 очень
душно
1009.2 1008.8
00 18.12 штиль 0 9000 м 8/0
[Ac trans Cs]
+25.6 +24.4 93 +36 +40 очень
душно
1010.2 1009.8 +24.6 52
03 18.12 З 6 12 км 8/5 600 м
[Cu hum Cs]
+29.4 +24.5 75 +42 +45 опасность
перегрева
1010.8 1010.4
06 18.12 З 4 12 км 9/4 600 м
[Cu med, cong As op Ci fib]
+31.8 +25.1 68 +46 +50 опасность
перегрева
1009.1 1008.8
09 18.12 СЗ 4 10 км гроза без осадков 10/6
[Cb cap As op]
+30.5 +24.7 71 +43 +43 опасность
перегрева
1007.8 1007.4

 

Местоположение метеостанции Surabaya Perak (Индонезия): широта -7.22 долгота 112.71 высота над уровнем моря 3 м.

В архиве по умолчанию представлена погода в Surabaya Perak за последнюю неделю. Архивные данные за месяц целиком и за предыдущие месяцы, начиная с января 2011 года, Вы можете получить, выбрав интересующий диапазон дат из раскрывающегося списка и нажав кнопку "Ввод!".

Внимание! Время в таблицах - всемирное. Для получения местного времени необходимо прибавить поправку, которая в Surabaya Perak равна 7 ч.

Смотрите также архив погоды в соседних городах и на ближайших метеорологических станциях:

Погода в Juanda Int Airport (Индонезия) (18 км)
Погода в Surabaya Gedangan (Индонезия) (110 км)
Погода в Kalianget (Индонезия) (139 км)
Погода в Sangkapura (Индонезия) (153 км)
Погода в Banyuwangi (Индонезия) (215 км)
Погода в Semarang (Индонезия) (255 км)
Погода в Achmad Yani Int Airport (Индонезия) (259 км)
Погода в Denpasar (Индонезия) (319 км)
Погода в Tegal (Индонезия) (395 км)
Погода в Mataram (Индонезия) (397 км)

Пояснения к столбцам:

Ветер - указаны скорость ветра в м/с - средняя за 10 мин, порывы в срок и между сроками (в фигурных скобках) и направление, откуда дует ветер: С - северный, СВ - северо-восточный, В - восточный, ЮВ - юго-восточный, Ю - южный, ЮЗ - юго-западный, З - западный, СЗ - северо-западный.
Видимость - горизонтальная дальность видимости в метрах или километрах. При видимости от 1 до 10 км при отсутствии осадков обычно наблюдается дымка, при ухудшении видимости до 1 км и менее - туман. В сухую погоду видимость может ухудшаться дымом, пылью или мглою.
Явления - указаны атмосферные явления, наблюдавшиеся в срок или в последний час перед сроком; фигурными скобками обозначены явления, наблюдавшиеся между сроками (за 1-3 часа до срока); квадратными скобками обозначены град или гололедные отложения с указанием их диаметра в мм.
Облачность - указаны через наклонную черту общая и нижняя облачность в баллах и высота нижней границы облаков в метрах; квадратными скобками обозначены формы облаков: Ci - перистые, Cs - перисто-слоистые, Cc - перисто-кучевые, Ac - высококучевые, As - высокослоистые, Sc - слоисто-кучевые, Ns - слоисто-дождевые, Cu - кучевые, Cb - кучево-дождевые. Подробнее классификацию облаков см. в Атласе облаков (PDF).
T - Температура воздуха - температура, измеренная на высоте 2 м над землей.
Td - Температура точки росы - температура, при понижении до которой содержащийся в воздухе водяной пар достигнет насыщения.
f - Относительная влажность воздуха - влажноcть воздуха, измеренная на высоте 2 м над землей.
Te - Эффективная температура - температура, которую ощущает одетый по сезону человек в тени. Характеристика душности погоды. При расчете учитывается влияние влажности воздуха и скорости ветра на теплоощущения человека.
Tes - Эффективная температура на солнце - температура, которую ощущает человек, с поправкой на солнечный нагрев. Характеристика знойности погоды. Зависит от высоты солнца над горизонтом, облачности и скорости ветра. Ночью, в пасмурную погоду, а также при ветре 12 м/с и более поправка равна нулю.
P - Атмосферное давление - приведенное к уровню моря атмосферное давление.
Po - Атмосферное давление - измеренное на уровне метеостанции атмосферное давление.
Tmin - Минимальная температура - минимум температуры воздуха на высоте 2 м над землей.
Tmax - Максимальная температура - максимум температуры воздуха на высоте 2 м над землей.
R - Количество осадков - Количество выпавших осадков за период времени, мм. При наведении курсора мыши на число - период времени, за который выпало указанное количество осадков.
R24 - Количество осадков - Количество выпавших осадков за 24 часа, мм.
S - Снежный покров - Высота снежного покрова, см. При наведении курсора мыши на число - состояние снежного покрова и степень покрытия местности в баллах.